Location: Cheching
(60.0667°N, 164.2167°W)
Time: 10:41:50
(UTC+00:00)

FENGYUN 1C DEB - Pass Details

Date: 25 September 2021
Orbit: 727 x 819 km, 99.4° (Epoch: 17 October)

Event Time Altitude Azimuth Distance (km) Brightness Sun altitude
Rises 06:04:09 0° 23° (NNE) 3,196 ? -10.1°
Reaches altitude 10° 06:08:04 10° 352° (N) 2,288 ? -10.6°
Maximum altitude 06:09:40 12° 333° (NNW) 2,191 ? -10.8°
Drops below altitude 10° 06:11:17 10° 314° (NW) 2,304 ? -11.0°
Sets 06:15:16 0° 283° (WNW) 3,252 ? -11.5°
